GFSFLT2_con_3kmhel_126.txt.gz
Helicity
-26 -11 35 87 77 78 83 74 67 74 85 82 80 83 73 60 51 40 39 28 32 36 32 37 31 26 34 29 14 -7 6 66
61 3 3 72 76 79 92 81 67 69 75 76 71 74 69 61 48 43 41 36 36 36 36 48 37 36 36 25 28 6 26 47
25 49 -4 53 73 75 94 87 81 83 77 73 74 75 65 56 45 50 44 43 43 39 39 46 51 49 42 31 28 25 40 54
38 38 62 39 53 95 100 95 92 103 91 84 73 46 62 46 44 71 56 63 56 42 42 48 45 41 37 34 15 22 52 47
71 62 37 74 63 129 119 110 108 108 97 103 74 49 50 27 112 92 86 77 76 63 57 35 20 -10 47 19 16 41 37 48
143 73 123 113 114 125 75 77 112 125 117 110 103 56 45 76 127 99 88 82 65 66 52 17 10 23 68 43 41 16 51 45
133 124 94 130 134 117 142 112 112 94 117 123 125 77 84 107 104 80 83 88 53 61 54 14 18 74 77 52 42 46 51 82
75 162 88 93 107 99 112 125 106 121 114 141 132 94 118 80 95 89 113 104 61 59 44 65 66 71 84 48 58 61 60 96
72 108 136 112 77 92 110 138 138 138 153 186 160 93 114 103 85 92 109 115 64 79 80 63 64 59 58 76 67 78 62 99
25 60 106 102 135 104 135 123 128 171 212 200 128 130 120 102 78 98 115 93 102 95 103 71 60 45 74 86 80 72 81 87
148 45 88 107 105 123 96 126 152 203 196 148 160 149 118 102 95 104 147 108 117 105 87 75 73 67 63 76 71 90 91 96
232 200 67 52 52 85 143 143 118 182 139 146 124 177 141 108 93 91 138 124 113 110 85 72 65 78 67 82 86 120 123 150
277 338 338 106 60 152 125 140 142 146 164 122 139 158 194 127 71 184 214 132 121 121 83 73 77 93 97 104 88 99 108 125
175 370 427 439 132 83 144 91 126 133 161 142 153 152 188 178 125 154 146 176 157 88 63 90 92 126 137 150 94 98 86 107
-26 145 268 346 382 96 95 130 161 119 153 159 228 220 187 215 164 142 146 151 154 127 87 102 108 129 122 192 153 108 102 112
81 -76 190 177 120 154 107 87 275 141 128 156 253 255 220 207 201 177 133 159 149 141 113 119 107 154 169 137 108 153 128 132
45 17 62 180 59 17 -105 -69 108 140 94 120 239 265 258 218 219 207 167 157 170 153 152 139 134 159 218 225 146 62 110 151
46 79 90 144 62 7 -43 -126 -43 95 78 206 283 335 303 221 210 229 199 156 157 163 152 153 135 127 159 175 210 162 123 183
149 177 164 140 73 97 -7 -83 -210 -7 35 256 294 358 318 244 206 248 207 160 143 151 155 150 143 143 134 173 143 120 107 136
235 227 183 224 184 158 49 -59 -147 -31 486 300 714 562 395 229 167 168 175 157 150 138 149 169 175 166 166 146 151 103 102 147

GFSFLT2_con_3kmhel_132.txt.gz
Helicity
19 8 14 0 20 62 65 71 70 69 64 62 60 78 89 93 88 83 70 60 51 52 52 47 38 44 35 46 66 63 47 34
32 47 58 54 49 51 74 71 70 78 71 69 70 72 89 101 99 86 76 58 56 54 48 47 41 46 47 54 63 69 44 33
89 68 84 106 78 81 86 84 79 78 83 80 99 106 106 106 115 103 79 67 55 62 53 47 50 48 38 55 52 50 37 10
320 250 76 60 68 115 105 109 118 110 110 110 116 116 114 129 126 121 96 75 65 62 60 58 60 62 44 39 34 40 44 24
223 302 267 251 167 90 140 144 131 134 127 126 128 130 130 141 167 152 152 114 98 83 84 76 58 57 48 37 38 33 32 28
109 111 100 133 169 222 93 126 145 126 137 150 162 171 148 161 180 187 173 154 129 107 91 66 55 48 42 39 34 55 37 32
59 0 -7 -5 73 98 158 105 121 157 158 145 177 185 172 172 184 204 182 175 153 117 89 77 61 46 47 29 11 48 63 65
22 40 -36 -18 -24 96 103 127 142 92 154 170 166 186 188 193 205 203 196 178 160 139 107 83 61 50 42 22 5 69 91 86
-82 -7 17 -44 -36 1 89 118 99 135 109 130 163 157 197 194 213 206 205 176 163 146 117 98 77 64 35 37 29 85 95 89
-39 -25 -52 -6 -2 -23 -5 97 153 86 120 98 138 166 176 218 225 214 215 208 189 165 133 117 94 100 65 51 59 101 108 109
-9 -5 8 16 25 5 41 60 110 217 96 126 89 122 184 211 215 219 244 231 206 168 139 146 128 95 76 87 77 104 117 110
71 46 4 24 22 17 -3 68 76 122 231 105 83 105 119 207 218 231 266 250 210 187 153 134 145 107 95 98 74 75 113 105
28 32 55 -10 31 62 31 18 49 115 151 204 83 68 78 118 223 274 249 253 204 220 206 162 141 149 163 142 99 55 50 93
14 48 55 46 61 113 81 82 57 17 148 169 157 13 80 91 135 241 263 239 215 237 231 220 165 150 176 166 114 86 38 22
67 64 25 45 62 78 102 38 -15 63 41 99 111 104 45 92 100 134 258 256 239 236 231 218 201 176 182 173 182 97 107 56
27 14 31 30 76 65 96 67 26 60 4 46 49 120 78 60 124 80 177 260 249 240 259 239 233 196 206 151 160 134 141 106
-4 11 17 32 46 79 50 102 73 54 68 0 71 41 74 48 73 146 109 249 258 242 248 250 246 203 198 194 228 198 161 147
-11 8 35 40 61 64 66 80 125 39 -33 16 -23 2 -31 2 -18 52 131 173 227 275 265 255 264 227 239 237 195 243 224 198
-27 -5 38 64 44 54 143 102 65 66 24 24 -34 -18 -73 -202 -130 60 -141 92 229 237 262 246 264 290 243 233 217 191 203 191
7 16 85 112 84 71 130 162 82 46 34 66 10 -27 -67 -211 -183 -210 97 68 199 249 261 260 271 240 199 217 208 177 199 205

GFSFLT2_con_3kmhel_135.txt.gz
Helicity
197 137 119 101 84 63 82 59 62 60 68 78 73 75 81 85 94 107 114 99 79 71 65 54 55 62 62 68 70 56 43 18
416 391 297 225 134 119 121 94 63 67 67 77 93 96 88 88 93 106 110 107 88 78 69 60 51 62 65 73 55 64 38 31
354 361 320 287 242 197 138 133 88 52 60 68 96 120 119 110 110 107 117 114 103 83 70 65 61 63 59 67 74 49 41 33
230 242 262 247 221 211 160 153 156 110 73 67 84 92 124 136 120 102 115 126 115 99 82 74 80 76 67 53 69 48 38 23
113 128 115 158 171 154 130 112 134 128 107 74 99 105 120 148 164 146 152 151 157 129 117 114 79 80 70 60 61 52 44 36
51 50 36 25 6 28 96 62 95 74 131 117 104 131 128 140 164 179 170 192 171 162 151 109 88 72 62 62 61 51 38 42
22 -15 -24 -25 -14 -17 -7 50 33 59 67 109 106 122 139 159 156 183 190 180 188 169 136 122 106 94 72 60 62 48 58 42
60 -1 -43 -59 -55 -47 -52 -10 33 24 43 47 88 84 116 160 187 188 192 190 181 185 155 137 125 115 80 68 48 45 56 66
43 36 2 -54 -71 -58 -40 -48 -24 19 58 76 56 69 79 119 189 204 196 201 166 177 182 166 157 131 82 80 78 32 25 93
41 14 -17 -34 -35 -31 -39 -9 -3 24 47 97 130 64 61 91 138 185 202 204 195 184 180 187 163 165 110 75 73 60 41 76
-3 -20 -31 -28 -39 -9 13 1 5 15 66 69 125 157 79 90 130 143 210 226 206 198 184 199 191 176 131 103 95 102 90 119
9 -9 -24 -8 -55 -61 6 -3 15 41 60 89 140 115 167 67 132 167 188 239 204 224 199 204 208 195 146 117 104 104 110 113
-8 -43 -39 -42 -4 43 19 -3 24 56 34 120 134 135 170 172 81 129 186 218 216 203 224 208 231 205 212 159 114 87 111 109
3 32 37 59 42 28 27 3 -14 32 75 114 168 147 168 162 129 99 145 176 223 269 223 229 211 214 231 228 178 173 117 67
24 58 44 32 40 11 32 30 -5 9 58 89 183 168 151 159 124 105 68 256 197 254 242 240 248 236 218 262 269 164 179 120
72 34 28 14 11 45 59 37 6 20 40 91 154 196 115 136 117 101 96 188 81 218 254 253 268 234 273 218 255 195 174 124
23 26 26 20 -6 21 61 73 49 46 69 66 99 118 139 126 123 43 50 81 94 119 216 248 284 240 265 278 299 244 190 162
22 4 21 7 10 21 18 49 72 63 74 54 65 68 144 97 85 71 23 42 47 70 108 207 251 245 272 271 223 232 245 209
5 1 -14 -15 -11 20 38 22 41 21 43 84 66 108 116 128 69 35 6 -12 124 72 41 171 242 274 265 280 234 206 226 231
2 -11 -18 -10 -27 42 26 20 36 65 69 92 116 104 123 180 117 29 -10 -35 36 108 -85 79 200 255 262 257 263 224 273 298

GFSFLT2_con_3kmhel_138.txt.gz
Helicity
300 314 318 325 276 219 169 139 109 80 50 48 58 75 90 91 103 101 110 102 97 98 93 88 73 82 66 48 48 65 76 78
316 312 303 269 243 277 241 178 150 147 85 54 53 71 81 90 99 104 113 111 111 99 92 90 72 85 75 56 51 47 54 59
259 269 248 239 199 231 251 234 188 148 152 87 75 89 92 92 101 108 111 110 119 105 97 93 80 86 84 59 70 44 41 45
173 170 180 192 147 146 159 159 135 124 123 115 89 81 88 97 107 96 111 111 115 115 104 103 100 109 104 78 68 51 46 43
106 104 85 85 107 124 83 89 92 102 97 80 99 73 94 81 123 135 136 118 158 137 142 150 122 112 112 108 68 56 29 42
40 51 50 32 3 9 24 54 53 51 79 74 58 47 82 82 108 131 151 155 167 180 176 160 118 101 105 105 82 59 39 39
104 63 6 9 -11 -43 -36 -33 -14 20 38 60 69 63 47 109 100 128 157 174 190 171 170 153 139 114 105 106 88 70 51 37
81 62 48 -5 -46 -32 -49 -69 -38 -22 -10 -11 45 93 69 41 109 111 158 194 191 192 174 158 134 148 124 114 87 83 69 54
14 -3 -9 -7 -12 -48 -78 -81 -71 -64 -8 10 32 68 131 64 62 95 143 188 223 196 172 170 140 155 140 135 113 97 84 67
-18 -26 -24 -48 -73 -73 -70 -78 -82 -84 -81 1 52 69 110 153 70 100 117 205 249 244 205 186 158 163 163 156 134 119 93 73
-7 -12 -40 -47 -43 -48 -66 -97 -62 -57 -46 -45 31 83 130 130 119 99 117 154 248 259 239 197 176 173 167 171 152 135 107 101
-0 -14 -12 11 18 7 -4 -5 -42 1 35 -8 37 86 152 132 135 154 138 121 228 275 233 231 198 196 193 162 162 145 124 129
-23 -47 -11 7 -27 -3 18 -4 24 21 50 83 85 148 182 161 148 169 221 154 48 226 233 238 197 225 234 179 181 136 129 130
-20 8 13 8 -5 23 1 -16 -6 -27 -54 51 83 145 204 216 195 189 224 168 64 109 217 227 198 225 248 231 202 165 107 112
-3 19 35 23 29 -8 6 5 22 1 -43 12 68 118 170 241 194 162 201 316 165 228 183 185 210 212 237 283 305 214 241 163
18 28 19 25 10 -44 -59 -47 -33 57 66 55 112 122 130 157 216 183 205 282 201 149 195 230 206 215 218 231 265 296 285 229
-15 -35 14 4 -10 -33 -17 -52 -21 -18 88 72 111 124 101 124 184 215 199 191 191 152 178 247 204 211 252 244 313 324 275 230
-50 -31 -21 -7 -3 -21 -28 -35 -10 37 24 95 70 113 201 195 199 257 243 198 154 108 50 179 288 115 204 248 290 330 315 270
-23 -25 -33 -15 1 -11 -13 6 37 37 20 5 95 86 109 185 227 244 266 198 138 79 85 175 276 17 122 227 250 255 304 301
-2 -21 -22 -20 -14 -2 13 31 39 32 65 56 47 47 35 183 203 251 297 238 152 98 77 136 152 203 58 148 229 237 317 316

GFSFLT2_con_3kmhel_144.txt.gz
Helicity
153 163 185 206 200 220 223 220 199 166 182 168 145 121 92 65 43 50 61 58 55 46 42 67 71 63 68 69 65 43 11 32
155 156 160 165 162 181 192 179 177 180 171 158 165 97 83 83 78 57 43 46 60 68 60 68 86 71 68 64 66 48 10 38
147 137 117 115 101 112 134 148 139 142 149 149 146 133 106 87 82 77 69 42 30 63 83 79 97 90 72 76 65 40 31 31
120 113 112 97 61 60 64 70 79 98 111 125 104 100 90 119 88 103 85 68 61 48 77 91 107 68 80 91 63 28 47 38
88 72 55 66 65 52 42 31 35 31 42 73 89 84 77 75 89 77 75 81 90 83 58 82 79 72 68 82 57 49 50 55
81 71 56 44 25 36 51 55 59 55 49 28 39 62 79 86 80 92 92 75 73 91 112 80 74 70 64 77 52 61 50 68
103 78 63 54 44 41 36 40 55 78 72 68 61 61 71 73 92 87 83 91 86 92 96 105 96 72 80 82 65 51 48 74
109 88 78 77 73 72 63 63 71 54 60 89 98 98 101 95 98 97 107 102 106 88 112 109 114 97 78 81 75 64 57 60
90 74 78 73 62 52 37 55 62 70 75 62 54 88 125 141 131 122 117 100 112 121 99 118 129 115 97 88 80 78 70 68
82 80 62 54 34 18 15 35 42 37 47 44 55 72 100 133 146 166 142 155 159 171 114 149 148 162 154 113 101 92 92 78
73 47 31 24 6 4 10 28 28 50 60 68 62 102 108 114 134 147 166 172 174 182 234 145 162 168 177 141 114 106 111 101
74 61 43 18 -19 -12 7 14 38 68 94 127 154 137 120 129 152 146 159 178 200 182 212 251 159 198 167 165 151 141 128 138
59 46 32 11 -5 -7 -1 15 45 67 91 116 125 151 153 135 113 146 153 166 210 210 189 223 219 186 187 182 184 147 191 156
62 61 51 13 -8 -23 -14 14 42 66 81 110 125 127 110 104 107 104 140 166 182 253 209 233 244 206 245 263 256 304 205 190
71 57 41 10 -7 -22 -11 -11 15 20 71 103 127 138 137 128 125 107 115 138 154 202 255 294 287 225 184 297 295 491 203 168
48 37 17 -3 -25 -29 -27 -26 -5 0 22 78 114 127 140 135 128 159 146 144 119 162 283 232 277 251 230 237 329 333 148 145
39 23 7 -7 -21 -16 -24 -11 3 18 30 28 58 99 109 135 128 134 133 132 136 146 203 282 262 226 234 241 231 221 365 8
40 27 6 2 7 -4 -13 -8 5 12 32 60 81 104 107 109 113 92 82 83 113 168 167 163 223 230 177 145 203 274 253 229
47 25 14 24 12 -5 -8 -16 -40 -23 -4 42 59 54 92 117 111 105 80 84 80 117 135 152 161 181 165 152 154 193 228 346
37 26 22 16 16 9 -7 -16 -25 -47 -29 11 50 74 95 88 90 101 85 84 40 68 127 123 111 115 116 114 158 185 158 162

GFSFLT2_con_3kmhel_147.txt.gz
Helicity
118 114 119 125 101 129 163 156 148 143 131 97 112 86 48 50 58 64 54 41 22 19 42 56 62 57 54 51 50 34 -2 -2
116 101 94 93 90 93 102 95 114 110 101 92 143 90 83 43 49 50 60 70 53 29 20 50 61 72 73 59 60 44 19 -12
126 119 98 96 80 79 74 71 60 77 85 92 118 95 84 68 64 72 45 70 67 65 40 39 63 79 79 85 78 49 34 25
113 99 94 82 64 66 65 72 69 67 62 66 77 83 77 70 59 72 49 59 69 63 69 70 84 55 85 105 97 47 35 46
87 80 78 76 64 46 62 65 76 83 90 83 61 58 62 73 64 54 55 52 61 67 72 91 77 100 55 150 86 30 63 67
101 106 88 80 61 61 59 72 76 80 101 89 118 116 116 82 77 80 75 47 50 46 73 91 83 99 77 29 102 133 101 56
114 117 113 100 88 79 74 67 67 82 67 88 97 114 127 144 147 108 91 104 95 84 77 54 89 94 112 62 48 111 139 93
129 122 109 100 97 86 71 70 71 65 70 84 92 94 115 130 148 166 161 127 100 116 96 100 83 80 91 113 76 88 114 107
103 84 76 82 74 61 46 49 53 62 65 79 93 94 97 98 121 137 161 189 180 132 153 113 125 105 79 94 131 75 92 138
96 92 91 80 55 39 35 31 36 25 44 57 63 76 99 110 109 128 161 196 218 222 191 201 113 143 139 121 123 136 95 103
101 96 90 76 52 37 27 30 19 32 36 46 73 108 102 105 127 135 160 178 200 202 201 188 258 139 140 144 143 129 131 99
98 87 79 66 36 31 24 17 16 14 27 53 100 107 130 156 167 184 197 193 195 206 201 250 206 252 161 139 154 163 146 141
87 78 79 71 61 46 32 24 6 3 26 53 84 87 100 107 98 106 128 156 169 223 230 200 187 188 231 173 143 159 146 146
89 99 87 62 45 24 12 1 -15 -1 24 46 65 105 83 85 100 100 96 104 106 143 232 234 196 213 239 234 184 148 143 157
90 85 66 57 53 27 16 -11 -3 -11 19 38 61 73 81 92 94 85 78 87 81 88 122 174 183 201 209 258 304 236 166 172
81 71 57 57 50 27 15 -20 -27 -27 -23 -8 42 80 95 99 123 117 96 90 68 87 100 111 156 209 208 224 198 350 218 140
79 60 55 59 46 35 -4 -24 -35 -36 4 27 41 73 105 114 106 113 113 93 81 83 87 105 140 157 194 213 175 237 266 285
75 71 67 54 41 38 0 -19 -40 -21 5 23 49 60 91 111 97 95 90 73 66 66 62 72 94 142 142 152 166 251 269 292
86 77 68 59 39 22 19 3 -29 -36 -17 5 25 52 63 78 92 70 64 71 82 70 67 30 73 101 132 103 148 159 229 222
86 73 66 49 24 25 17 30 8 -34 -33 0 24 34 48 57 89 79 51 40 44 46 71 75 47 87 107 145 96 132 155 184

GFSFLT2_con_3kmhel_150.txt.gz
Helicity
98 96 106 116 72 95 95 79 87 80 81 88 116 101 64 73 51 37 25 24 37 25 24 32 32 38 41 45 56 50 46 31
110 124 122 128 94 94 99 64 84 58 56 65 119 133 116 95 75 66 74 56 35 35 49 49 41 37 46 43 49 57 67 44
105 135 133 118 69 74 78 77 102 85 83 58 73 72 97 105 93 82 56 46 40 41 34 44 59 55 55 57 66 78 69 74
143 118 90 80 67 60 50 61 68 66 86 56 35 60 60 85 87 93 89 59 40 51 50 37 55 68 89 94 120 107 84 63
128 96 65 58 53 31 22 23 39 66 82 66 59 49 62 56 56 73 82 93 79 64 67 99 93 97 103 129 142 141 121 91
104 81 64 62 53 50 40 35 34 45 46 55 54 47 52 65 87 106 97 94 96 102 108 70 79 97 107 101 128 147 133 109
78 69 68 84 92 83 83 89 80 57 54 54 52 35 41 48 75 101 129 123 129 127 108 105 99 85 103 91 63 115 121 141
71 60 77 91 98 103 105 90 73 62 55 51 47 44 41 46 60 81 105 134 148 154 135 115 132 108 88 107 77 51 78 146
87 93 91 105 100 90 70 62 59 62 60 71 73 68 64 76 69 66 89 136 155 151 157 146 127 149 96 108 119 76 53 81
106 103 96 91 66 51 44 39 42 44 54 55 71 96 115 97 84 107 138 154 137 156 153 146 147 216 155 112 123 113 89 61
106 96 92 75 52 49 47 50 45 42 35 37 59 55 74 91 80 67 78 82 114 180 193 227 167 184 188 193 125 130 145 119
96 68 61 47 39 46 37 30 27 18 19 19 64 43 68 89 71 74 70 74 87 116 191 204 260 219 233 220 208 121 140 166
64 58 55 55 57 51 48 44 29 28 11 42 38 67 60 49 38 39 52 76 91 102 96 112 142 286 236 131 130 192 147 146
63 77 80 75 60 46 38 22 16 5 2 -11 -0 32 52 67 71 48 54 67 71 91 100 79 122 139 220 209 113 108 136 120
89 98 97 92 67 57 46 27 8 -9 -14 -26 -13 16 55 71 71 56 47 48 52 63 80 94 78 104 148 223 187 161 135 157
113 112 104 100 73 59 48 15 9 -5 -10 -25 -35 -25 54 73 72 61 47 44 32 44 53 56 68 62 110 111 118 151 183 132
118 112 119 102 84 55 37 22 6 -13 -24 -56 -51 3 41 78 68 57 40 32 39 49 59 56 61 67 88 120 109 66 115 131
129 123 136 101 82 60 45 30 -14 -25 -22 -28 -57 -23 11 72 73 54 42 29 33 31 37 49 44 67 86 109 116 120 131 157
133 136 139 95 86 59 42 -0 -13 -30 -34 -21 -48 -45 18 27 49 54 61 46 37 26 28 35 78 92 85 114 109 84 97 149
144 140 117 95 87 60 23 9 -2 -19 -19 -20 -11 4 -8 -37 -13 24 38 9 13 13 15 51 77 107 96 71 113 81 53 80